バーナード第2彗星

177P/Barnard 2 (2006)

English version
Home page
Updated on April 20, 2007

---------------------------------------------------------------------

・ プロフィール

符号 177P/2006 M3
再発見日 2006年6月23日
再発見光度 17.1等
再発見者 Lincoln Laboratory Near-Earth Asteroid Research project

・ 写真集

・ 軌道要素

Epoch 2006 Aug. 13.0 TT = JDT 2453960.5
T 2006 Aug. 28.68844 TT                                 MPC
q   1.1072152            (2000.0)            P               Q
n   0.00823844     Peri.   60.46082     +0.76133892     +0.38998703
a  24.2794796      Node   272.06643     -0.60679227     +0.71001404
e   0.9543971      Incl.   31.21748     +0.22839920     +0.58633624
P 119.64

・ 星図

・ 光度変化

        m1 =  12.5 + 5 logΔ +  25   log r          [   ,-47]  (              〜2006年 7月12日)
        m1 = -22.5 + 5 logΔ + 750   log r(t + 35)  [-47,-35]  (2006年 7月12日〜2006年 7月24日)
        m1 =   9.7 + 5 logΔ +  10   log r          [-35,  0]  (2006年 7月24日〜2006年 8月28日)
        m1 =   9.0 + 5 logΔ +  25.0 log r          [  0, 70]  (2006年 8月28日〜2006年11月 6日)
        m1 =  11.7 + 5 logΔ +  25   log r          [ 70,   ]  (2006年11月 6日〜              )

---------------------------------------------------------------------

軌道要素はM.P.E.C. 2006-M38に掲載されたものです。
星図は StellaNavigator Ver.2.0 for Windows (アストロアーツ 編著 / アスキー出版局刊) で作成したものです。
光度グラフはComet for Windowsで作成したものです。

---------------------------------------------------------------------

Copyright(C) Seiichi Yoshida (comet@aerith.net). All rights reserved.